QPF
0.00 0.00 0.00 0.00 0.00 0.00 0.00 0.00 0.00 0.00 0.00 0.00 0.00 0.00 0.00 0.00 0.00 0.00 0.00 0.00 0.00 0.00 0.00 0.00 0.00 0.00 0.00 0.00 0.00 0.00 0.00 0.00 0.00 0.00 0.00 0.00 0.00 0.00 0.00 0.00 0.00 0.00 0.00 0.00
0.00 0.00 0.00 0.00 0.00 0.00 0.00 0.00 0.00 0.00 0.00 0.00 0.00 0.00 0.00 0.00 0.00 0.00 0.00 0.00 0.00 0.00 0.00 0.00 0.00 0.00 0.00 0.00 0.00 0.00 0.00 0.00 0.00 0.00 0.00 0.00 0.00 0.00 0.00 0.00 0.00 0.00 0.00 0.00
0.00 0.00 0.00 0.00 0.00 0.00 0.00 0.00 0.00 0.00 0.00 0.00 0.00 0.00 0.00 0.00 0.00 0.00 0.00 0.00 0.00 0.00 0.00 0.00 0.00 0.00 0.00 0.00 0.00 0.00 0.00 0.00 0.00 0.00 0.00 0.00 0.00 0.00 0.00 0.00 0.00 0.00 0.00 0.00
0.00 0.00 0.00 0.00 0.00 0.00 0.00 0.00 0.00 0.00 0.00 0.00 0.00 0.00 0.00 0.00 0.00 0.00 0.00 0.00 0.00 0.00 0.00 0.00 0.00 0.00 0.00 0.00 0.00 0.00 0.00 0.00 0.00 0.00 0.00 0.00 0.00 0.00 0.00 0.00 0.00 0.00 0.00 0.00
0.00 0.00 0.00 0.00 0.00 0.00 0.00 0.00 0.00 0.00 0.00 0.00 0.00 0.00 0.00 0.00 0.00 0.00 0.00 0.00 0.00 0.00 0.00 0.00 0.00 0.00 0.00 0.00 0.00 0.00 0.00 0.00 0.00 0.00 0.00 0.00 0.00 0.00 0.00 0.00 0.00 0.00 0.00 0.00
0.00 0.00 0.00 0.00 0.00 0.00 0.00 0.00 0.00 0.00 0.00 0.00 0.00 0.00 0.00 0.00 0.00 0.00 0.00 0.00 0.00 0.00 0.00 0.00 0.00 0.00 0.00 0.00 0.00 0.00 0.00 0.00 0.00 0.00 0.00 0.00 0.00 0.00 0.00 0.00 0.00 0.00 0.00 0.00
0.00 0.00 0.00 0.00 0.00 0.00 0.00 0.00 0.00 0.00 0.00 0.00 0.00 0.00 0.00 0.00 0.00 0.00 0.00 0.00 0.00 0.00 0.00 0.00 0.00 0.00 0.00 0.00 0.00 0.00 0.00 0.00 0.00 0.00 0.00 0.00 0.00 0.00 0.00 0.00 0.00 0.00 0.00 0.00
0.00 0.00 0.00 0.00 0.00 0.00 0.00 0.00 0.00 0.00 0.00 0.00 0.00 0.01 0.00 0.00 0.00 0.00 0.00 0.00 0.00 0.00 0.00 0.00 0.00 0.00 0.00 0.00 0.00 0.00 0.00 0.00 0.00 0.00 0.00 0.00 0.00 0.00 0.00 0.00 0.00 0.00 0.00 0.00
0.00 0.00 0.00 0.00 0.00 0.00 0.00 0.00 0.00 0.00 0.00 0.00 0.00 0.05 0.09 0.00 0.00 0.00 0.00 0.00 0.00 0.00 0.00 0.00 0.00 0.00 0.00 0.00 0.00 0.00 0.00 0.00 0.00 0.00 0.00 0.00 0.00 0.00 0.00 0.00 0.00 0.00 0.00 0.00
0.00 0.00 0.00 0.00 0.00 0.00 0.00 0.00 0.00 0.00 0.00 0.00 0.00 0.05 0.10 0.01 0.00 0.00 0.00 0.00 0.00 0.00 0.00 0.00 0.00 0.00 0.00 0.00 0.00 0.00 0.00 0.00 0.00 0.00 0.00 0.00 0.00 0.00 0.00 0.00 0.00 0.00 0.00 0.00
0.00 0.00 0.00 0.00 0.00 0.00 0.00 0.00 0.00 0.00 0.01 0.05 0.07 0.11 0.03 0.01 0.01 0.00 0.00 0.00 0.00 0.00 0.00 0.00 0.00 0.00 0.00 0.00 0.00 0.00 0.00 0.00 0.00 0.00 0.00 0.00 0.00 0.00 0.00 0.00 0.00 0.00 0.00 0.01
0.00 0.00 0.00 0.00 0.00 0.00 0.00 0.00 0.00 0.01 0.04 0.14 0.08 0.03 0.01 0.00 0.00 0.00 0.00 0.00 0.00 0.00 0.00 0.00 0.00 0.00 0.00 0.00 0.00 0.00 0.00 0.00 0.00 0.00 0.00 0.00 0.00 0.00 0.00 0.00 0.00 0.00 0.01 0.06
0.00 0.00 0.00 0.00 0.00 0.00 0.00 0.00 0.00 0.03 0.05 0.10 0.05 0.07 0.02 0.00 0.00 0.00 0.00 0.00 0.00 0.00 0.00 0.00 0.00 0.00 0.00 0.00 0.00 0.00 0.00 0.00 0.00 0.00 0.00 0.00 0.00 0.00 0.00 0.00 0.00 0.01 0.05 0.07
0.00 0.00 0.00 0.00 0.00 0.00 0.01 0.02 0.02 0.00 0.03 0.04 0.14 0.07 0.00 0.00 0.00 0.00 0.00 0.00 0.00 0.00 0.00 0.00 0.00 0.00 0.00 0.00 0.00 0.00 0.00 0.00 0.00 0.00 0.00 0.00 0.00 0.00 0.00 0.00 0.01 0.03 0.06 0.05
0.00 0.00 0.00 0.00 0.00 0.01 0.06 0.10 0.06 0.04 0.05 0.13 0.11 0.01 0.00 0.00 0.00 0.00 0.00 0.00 0.00 0.00 0.00 0.00 0.00 0.00 0.00 0.00 0.00 0.00 0.00 0.00 0.00 0.00 0.00 0.00 0.00 0.00 0.01 0.02 0.03 0.04 0.04 0.03
0.00 0.00 0.00 0.00 0.00 0.01 0.05 0.08 0.22 0.15 0.08 0.07 0.03 0.00 0.00 0.00 0.00 0.00 0.00 0.00 0.00 0.00 0.00 0.00 0.00 0.00 0.00 0.00 0.00 0.00 0.00 0.00 0.00 0.00 0.00 0.00 0.00 0.01 0.04 0.05 0.04 0.04 0.03 0.01
0.00 0.00 0.00 0.00 0.00 0.00 0.03 0.08 0.11 0.13 0.04 0.00 0.00 0.00 0.00 0.00 0.00 0.00 0.00 0.00 0.00 0.00 0.00 0.00 0.00 0.00 0.00 0.00 0.00 0.00 0.00 0.00 0.00 0.00 0.00 0.00 0.00 0.03 0.08 0.06 0.04 0.03 0.01 0.01
0.00 0.00 0.00 0.00 0.00 0.01 0.04 0.10 0.11 0.12 0.03 0.00 0.00 0.00 0.00 0.00 0.00 0.00 0.00 0.00 0.00 0.00 0.00 0.00 0.00 0.00 0.00 0.00 0.00 0.00 0.00 0.00 0.00 0.00 0.00 0.00 0.01 0.06 0.10 0.04 0.02 0.01 0.01 0.01
0.00 0.00 0.00 0.00 0.00 0.02 0.02 0.01 0.01 0.01 0.00 0.00 0.00 0.00 0.00 0.00 0.00 0.00 0.00 0.00 0.00 0.00 0.00 0.00 0.00 0.00 0.00 0.00 0.00 0.00 0.00 0.00 0.00 0.00 0.00 0.00 0.03 0.06 0.07 0.01 0.01 0.01 0.01 0.01
0.00 0.00 0.00 0.01 0.01 0.01 0.03 0.01 0.00 0.00 0.00 0.00 0.00 0.00 0.00 0.00 0.00 0.00 0.00 0.00 0.00 0.00 0.00 0.00 0.00 0.00 0.00 0.00 0.00 0.00 0.00 0.00 0.00 0.00 0.00 0.01 0.05 0.07 0.05 0.02 0.02 0.01 0.01 0.01
0.00 0.00 0.01 0.03 0.01 0.03 0.02 0.02 0.01 0.00 0.01 0.00 0.00 0.00 0.00 0.00 0.00 0.00 0.00 0.00 0.00 0.00 0.00 0.00 0.00 0.00 0.00 0.00 0.00 0.00 0.00 0.00 0.00 0.00 0.01 0.02 0.07 0.08 0.05 0.03 0.03 0.01 0.00 0.00
0.00 0.00 0.03 0.04 0.01 0.02 0.00 0.00 0.01 0.02 0.00 0.00 0.00 0.00 0.00 0.00 0.00 0.00 0.00 0.00 0.00 0.00 0.00 0.00 0.00 0.00 0.00 0.00 0.00 0.00 0.00 0.00 0.00 0.00 0.01 0.02 0.07 0.08 0.05 0.04 0.02 0.01 0.00 0.00
0.00 0.01 0.02 0.02 0.00 0.00 0.00 0.00 0.01 0.00 0.00 0.00 0.00 0.00 0.00 0.00 0.00 0.00 0.00 0.00 0.00 0.00 0.00 0.00 0.00 0.00 0.00 0.00 0.00 0.00 0.00 0.00 0.00 0.00 0.01 0.02 0.04 0.06 0.04 0.05 0.03 0.01 0.00 0.00
0.00 0.00 0.01 0.00 0.00 0.00 0.00 0.00 0.00 0.00 0.00 0.00 0.00 0.00 0.00 0.00 0.00 0.00 0.00 0.00 0.00 0.00 0.00 0.00 0.00 0.00 0.00 0.00 0.00 0.00 0.00 0.00 0.00 0.00 0.00 0.00 0.02 0.05 0.03 0.03 0.03 0.01 0.01 0.00
0.02 0.01 0.01 0.00 0.00 0.01 0.00 0.00 0.00 0.00 0.00 0.00 0.00 0.00 0.00 0.00 0.00 0.00 0.00 0.00 0.00 0.00 0.00 0.00 0.00 0.00 0.00 0.00 0.00 0.00 0.00 0.00 0.00 0.00 0.00 0.00 0.00 0.03 0.04 0.04 0.06 0.06 0.06 0.02
0.07 0.06 0.03 0.00 0.00 0.00 0.00 0.00 0.00 0.00 0.00 0.00 0.00 0.00 0.00 0.00 0.00 0.00 0.00 0.00 0.00 0.00 0.00 0.00 0.00 0.00 0.00 0.00 0.00 0.00 0.00 0.00 0.00 0.00 0.00 0.00 0.00 0.01 0.04 0.05 0.06 0.09 0.07 0.03
MSLP
1011.29 1011.48 1012.32 1012.50 1012.25 1012.22 1012.31 1012.34 1012.35 1012.17 1012.31 1012.71 1013.38 1013.78 1014.23 1014.48 1014.08 1014.47 1015.02 1015.55 1015.93 1016.35 1016.99 1017.62 1018.33 1018.98 1019.49 1019.70 1020.05 1020.48 1020.84 1021.16 1021.35 1021.56 1021.55 1021.66 1021.45 1021.47 1021.42 1021.34 1021.46 1021.46 1021.36 1021.34
1012.47 1013.06 1013.63 1013.37 1013.05 1012.90 1013.00 1013.03 1013.05 1012.76 1012.90 1013.05 1013.71 1014.13 1014.64 1014.90 1015.39 1015.61 1015.65 1015.95 1016.43 1017.10 1017.51 1018.16 1018.68 1019.16 1019.53 1020.02 1020.18 1020.52 1020.77 1021.16 1021.40 1021.52 1021.56 1021.73 1021.65 1021.39 1021.31 1021.19 1021.05 1020.99 1020.90 1020.81
1013.65 1014.86 1014.32 1014.00 1013.93 1013.76 1013.72 1013.75 1013.71 1013.73 1013.44 1013.57 1013.97 1014.41 1014.74 1015.51 1015.87 1016.21 1016.67 1016.96 1017.24 1017.66 1018.02 1018.81 1019.24 1019.82 1020.11 1020.27 1020.60 1020.79 1021.03 1021.32 1021.47 1021.50 1021.55 1021.55 1021.46 1021.23 1020.87 1020.53 1020.39 1020.17 1020.29 1020.26
1015.34 1015.73 1015.04 1014.79 1014.77 1014.98 1014.46 1014.48 1014.34 1014.00 1013.92 1013.85 1014.41 1014.71 1015.50 1015.99 1016.40 1017.07 1017.63 1017.98 1018.16 1018.32 1018.91 1019.41 1019.83 1020.26 1020.50 1020.82 1021.16 1021.27 1021.45 1021.50 1021.47 1021.52 1021.49 1021.51 1021.17 1020.61 1020.16 1020.05 1019.82 1019.71 1019.73 1019.54
1016.98 1016.50 1016.06 1015.83 1016.06 1015.80 1015.31 1014.88 1014.64 1014.35 1014.35 1014.64 1015.15 1015.47 1016.38 1016.86 1017.02 1018.04 1018.72 1019.07 1019.30 1019.62 1019.85 1020.13 1020.45 1020.67 1021.13 1021.23 1021.35 1021.53 1021.60 1021.53 1021.47 1021.52 1021.58 1021.24 1020.65 1020.21 1019.81 1019.46 1019.26 1018.95 1018.74 1018.60
1017.82 1017.39 1017.36 1017.26 1016.52 1016.28 1015.93 1015.00 1014.97 1014.99 1015.05 1015.45 1016.38 1016.61 1017.47 1018.22 1019.14 1019.14 1019.62 1020.01 1020.26 1020.42 1020.61 1020.90 1021.01 1021.38 1021.33 1021.49 1021.63 1021.68 1021.60 1021.42 1021.40 1021.30 1021.06 1020.82 1020.38 1019.70 1019.12 1018.66 1018.32 1017.99 1017.68 1017.37
1018.97 1018.51 1018.25 1017.91 1017.15 1016.65 1016.43 1015.80 1015.62 1015.72 1015.84 1016.61 1017.22 1017.50 1018.72 1019.41 1020.08 1020.39 1020.39 1020.58 1020.85 1021.05 1021.19 1021.38 1021.40 1021.48 1021.61 1021.70 1021.69 1021.67 1021.53 1021.26 1021.12 1021.00 1020.71 1020.23 1019.73 1019.25 1018.67 1018.01 1017.42 1016.95 1016.47 1016.17
1020.80 1019.44 1019.35 1018.88 1018.61 1018.16 1017.58 1017.36 1017.46 1017.36 1017.32 1017.64 1018.00 1018.82 1019.55 1020.10 1020.59 1021.02 1021.19 1021.33 1021.46 1021.60 1021.74 1021.79 1021.79 1021.85 1021.89 1021.88 1021.90 1021.86 1021.62 1021.26 1020.90 1020.63 1020.12 1019.71 1019.23 1018.52 1017.81 1017.13 1016.56 1015.99 1015.53 1015.09
1022.31 1021.31 1020.42 1019.77 1019.34 1018.70 1018.40 1018.51 1019.08 1018.93 1019.13 1018.89 1019.13 1019.85 1020.17 1020.28 1020.73 1021.24 1021.47 1021.74 1021.91 1022.00 1022.08 1022.08 1022.20 1022.19 1022.11 1022.13 1022.10 1021.97 1021.69 1021.11 1020.66 1020.23 1019.75 1019.12 1018.52 1017.78 1017.01 1016.47 1015.96 1015.36 1014.98 1014.63
1023.52 1022.62 1021.31 1020.40 1019.77 1019.60 1019.56 1019.94 1019.90 1020.12 1020.28 1019.97 1019.78 1019.98 1020.34 1020.32 1020.65 1021.24 1021.66 1021.88 1022.13 1022.30 1022.35 1022.37 1022.31 1022.28 1022.34 1022.25 1022.08 1021.88 1021.49 1021.06 1020.56 1019.94 1019.32 1018.51 1017.90 1017.30 1016.74 1016.16 1015.54 1015.00 1014.49 1014.05
1023.70 1023.47 1022.04 1021.17 1021.18 1020.97 1020.56 1020.87 1021.31 1021.58 1021.63 1021.07 1020.53 1020.76 1020.69 1020.49 1020.38 1020.98 1021.60 1021.99 1022.22 1022.39 1022.50 1022.44 1022.45 1022.42 1022.34 1022.19 1021.91 1021.62 1021.31 1020.86 1020.20 1019.63 1018.93 1018.20 1017.52 1016.93 1016.37 1015.80 1015.20 1014.57 1013.96 1013.36
1024.16 1023.84 1022.98 1022.48 1022.26 1021.82 1021.77 1022.39 1022.83 1022.74 1022.42 1021.93 1021.52 1021.37 1020.98 1020.58 1020.47 1021.01 1021.67 1022.09 1022.37 1022.58 1022.59 1022.63 1022.50 1022.40 1022.24 1022.03 1021.79 1021.56 1021.08 1020.65 1020.09 1019.44 1018.61 1017.91 1017.27 1016.65 1016.10 1015.60 1015.05 1014.49 1013.84 1013.43
1024.36 1024.18 1023.65 1022.88 1022.84 1022.67 1022.98 1023.23 1023.36 1023.35 1023.04 1022.37 1021.85 1021.51 1021.03 1021.07 1021.17 1021.61 1021.89 1022.23 1022.48 1022.58 1022.58 1022.48 1022.43 1022.42 1022.25 1022.08 1021.88 1021.54 1021.11 1020.57 1019.90 1019.02 1018.32 1017.65 1017.03 1016.52 1016.02 1015.62 1015.20 1014.43 1013.70 1013.06
1024.73 1024.87 1024.71 1024.36 1024.32 1024.63 1024.34 1023.94 1023.45 1022.95 1023.11 1022.59 1022.57 1022.20 1021.70 1021.67 1021.73 1022.01 1022.21 1022.41 1022.51 1022.56 1022.56 1022.54 1022.45 1022.48 1022.46 1022.29 1022.04 1021.72 1021.20 1020.62 1019.70 1018.93 1018.20 1017.36 1016.94 1016.55 1016.29 1015.53 1014.80 1014.07 1013.41 1012.62
1025.36 1025.42 1025.27 1025.04 1025.00 1025.11 1025.15 1024.75 1024.08 1023.64 1023.48 1023.22 1023.57 1023.17 1022.96 1022.57 1022.30 1022.49 1022.57 1022.60 1022.57 1022.48 1022.59 1022.67 1022.65 1022.74 1022.61 1022.43 1022.29 1021.85 1021.34 1020.45 1019.69 1018.86 1017.97 1017.41 1016.98 1016.65 1016.10 1015.22 1014.46 1013.69 1012.92 1012.31
1026.15 1025.93 1025.53 1025.14 1025.01 1025.06 1025.46 1025.27 1024.82 1024.38 1024.20 1024.14 1024.14 1023.83 1023.85 1023.16 1022.87 1022.73 1022.67 1022.67 1022.59 1022.63 1022.80 1022.91 1023.03 1023.02 1022.89 1022.86 1022.53 1022.19 1021.43 1020.45 1019.65 1018.78 1017.99 1017.37 1016.96 1016.80 1015.98 1015.07 1014.28 1013.42 1012.65 1011.93
1026.54 1026.25 1025.70 1025.21 1025.11 1025.21 1025.61 1026.45 1026.21 1025.85 1025.67 1025.27 1024.94 1025.25 1024.43 1023.51 1023.13 1022.89 1022.74 1022.79 1022.78 1022.91 1023.15 1023.33 1023.44 1023.38 1023.44 1023.16 1023.04 1022.41 1021.53 1020.52 1019.53 1018.74 1018.01 1017.44 1017.04 1016.88 1016.06 1015.21 1014.26 1013.40 1012.69 1011.99
1027.05 1026.60 1026.31 1025.41 1025.05 1025.65 1026.48 1026.83 1026.60 1026.32 1026.37 1026.12 1025.75 1025.34 1024.86 1024.33 1023.58 1023.04 1022.89 1022.79 1022.91 1023.30 1023.56 1023.81 1023.86 1023.77 1023.69 1023.47 1023.14 1022.56 1021.59 1020.40 1019.49 1018.66 1018.18 1017.72 1017.62 1017.07 1016.39 1015.50 1014.52 1013.74 1013.06 1012.31
1027.56 1027.09 1026.71 1026.17 1025.64 1026.39 1026.73 1027.37 1027.28 1026.99 1026.59 1026.60 1026.18 1025.65 1025.05 1024.24 1023.31 1023.10 1023.29 1023.29 1023.49 1023.78 1024.17 1024.40 1024.24 1024.31 1023.97 1023.69 1023.29 1022.64 1021.66 1020.56 1019.54 1018.91 1018.67 1018.43 1018.25 1017.44 1016.80 1015.90 1015.10 1014.39 1013.59 1012.72
1027.88 1027.63 1027.33 1027.00 1026.53 1027.03 1028.11 1027.76 1027.31 1026.82 1026.79 1026.72 1026.50 1026.15 1025.64 1024.78 1023.49 1023.54 1023.81 1023.91 1024.08 1024.42 1024.62 1024.46 1024.60 1024.49 1024.06 1023.88 1023.45 1022.66 1021.94 1020.90 1019.97 1019.66 1019.46 1019.28 1018.75 1017.96 1017.35 1016.60 1015.83 1015.08 1014.28 1013.51
1028.79 1028.50 1028.31 1027.89 1027.65 1028.13 1028.48 1027.67 1026.82 1027.15 1028.41 1027.14 1026.85 1026.50 1026.07 1025.56 1025.09 1024.21 1024.28 1024.38 1024.55 1024.87 1024.82 1024.70 1024.93 1024.58 1024.47 1024.11 1023.65 1022.90 1022.26 1021.54 1020.64 1020.22 1019.85 1019.85 1019.35 1018.61 1017.99 1017.28 1016.53 1015.77 1015.02 1014.30
1030.46 1030.06 1029.67 1029.17 1028.63 1028.97 1028.58 1027.87 1028.02 1028.73 1028.06 1027.43 1027.02 1026.62 1026.16 1025.54 1024.88 1024.52 1024.48 1024.65 1024.86 1024.99 1024.92 1025.03 1025.00 1024.81 1024.63 1024.39 1024.00 1023.37 1022.70 1022.41 1021.09 1020.58 1020.24 1020.28 1020.06 1019.32 1018.62 1017.87 1017.16 1016.46 1015.85 1015.25
1031.27 1031.36 1030.97 1030.57 1029.78 1029.35 1029.29 1029.04 1028.75 1028.37 1027.87 1027.38 1027.07 1026.49 1026.17 1025.49 1024.95 1024.86 1024.81 1025.05 1025.17 1025.26 1025.22 1025.37 1025.37 1025.09 1024.86 1024.68 1024.40 1023.95 1023.51 1022.81 1021.82 1020.75 1020.50 1020.49 1020.76 1020.19 1019.46 1018.73 1018.04 1017.36 1016.92 1016.36
1031.53 1031.47 1031.14 1030.56 1029.86 1029.42 1028.78 1028.19 1028.29 1028.15 1027.71 1027.13 1026.79 1026.32 1025.90 1025.45 1025.02 1024.93 1025.01 1025.22 1025.40 1025.50 1025.48 1025.59 1025.45 1025.36 1025.07 1025.05 1024.71 1024.58 1024.12 1023.44 1022.52 1021.45 1020.97 1020.87 1021.09 1021.08 1020.51 1019.88 1019.38 1018.72 1018.18 1017.74
1032.23 1031.77 1031.31 1030.58 1029.97 1029.23 1028.39 1028.21 1027.96 1027.49 1027.17 1026.60 1026.27 1026.03 1025.63 1025.23 1024.86 1024.91 1025.05 1025.25 1025.50 1025.73 1025.79 1025.86 1025.77 1025.66 1025.52 1025.39 1025.09 1024.91 1024.54 1024.09 1023.28 1022.46 1021.54 1021.31 1021.37 1021.81 1021.48 1021.08 1020.73 1020.25 1019.96 1019.28
1032.42 1032.09 1031.75 1031.06 1030.48 1030.28 1028.99 1028.01 1027.64 1027.26 1026.51 1026.07 1025.73 1025.36 1025.30 1025.10 1024.78 1024.93 1025.07 1025.31 1025.55 1025.81 1026.03 1025.99 1026.01 1025.90 1025.92 1025.74 1025.55 1025.34 1025.06 1024.76 1024.20 1023.46 1022.65 1022.05 1021.94 1022.23 1022.32 1021.94 1021.44 1021.23 1020.89 1020.28
Thickness
5658 5651 5635 5634 5637 5636 5630 5625 5619 5625 5626 5616 5605 5604 5601 5600 5601 5594 5585 5577 5571 5565 5558 5551 5544 5537 5531 5528 5522 5515 5508 5500 5494 5488 5484 5479 5476 5470 5464 5460 5454 5450 5446 5443
5645 5629 5628 5631 5630 5627 5621 5614 5611 5617 5613 5610 5597 5591 5589 5586 5579 5572 5570 5565 5561 5553 5550 5542 5536 5532 5527 5519 5514 5507 5501 5493 5487 5481 5475 5467 5462 5459 5454 5448 5444 5440 5438 5435
5629 5617 5623 5623 5616 5614 5611 5605 5602 5597 5603 5600 5590 5582 5579 5571 5567 5562 5555 5553 5550 5546 5543 5533 5529 5521 5515 5511 5504 5498 5492 5485 5478 5473 5466 5460 5455 5452 5448 5445 5441 5437 5432 5429
5616 5611 5613 5612 5606 5599 5598 5597 5593 5592 5590 5587 5584 5576 5566 5561 5557 5549 5544 5541 5540 5538 5531 5525 5519 5513 5508 5501 5495 5490 5483 5476 5470 5463 5458 5452 5449 5449 5447 5443 5439 5434 5429 5426
5598 5600 5599 5599 5590 5589 5590 5591 5586 5586 5582 5576 5569 5564 5557 5553 5550 5539 5534 5530 5527 5522 5520 5514 5510 5507 5499 5495 5489 5481 5474 5468 5463 5456 5450 5446 5446 5445 5444 5440 5436 5433 5428 5424
5591 5596 5590 5583 5585 5582 5581 5585 5577 5573 5571 5561 5551 5554 5545 5538 5529 5532 5528 5520 5516 5513 5510 5506 5503 5498 5494 5486 5479 5473 5467 5463 5457 5451 5447 5443 5442 5442 5441 5439 5436 5433 5429 5425
5580 5581 5579 5575 5575 5575 5569 5569 5563 5563 5557 5548 5547 5547 5532 5531 5523 5519 5521 5515 5511 5508 5506 5502 5499 5493 5485 5480 5474 5467 5463 5459 5454 5448 5444 5442 5440 5438 5437 5436 5435 5432 5430 5425
5564 5580 5565 5564 5558 5551 5549 5549 5541 5538 5543 5545 5544 5534 5528 5525 5518 5512 5510 5507 5507 5504 5500 5495 5490 5485 5480 5474 5467 5461 5457 5454 5451 5447 5445 5441 5438 5439 5437 5435 5432 5429 5426 5423
5544 5555 5550 5547 5544 5546 5537 5531 5527 5525 5520 5532 5534 5521 5521 5525 5520 5512 5509 5506 5502 5499 5494 5489 5483 5478 5473 5468 5462 5456 5452 5450 5448 5445 5442 5440 5438 5436 5434 5430 5425 5423 5417 5413
5531 5530 5537 5536 5535 5531 5525 5523 5523 5520 5520 5526 5532 5531 5528 5527 5526 5515 5508 5505 5500 5494 5489 5484 5480 5475 5469 5463 5459 5454 5451 5448 5446 5443 5441 5440 5437 5433 5428 5423 5420 5414 5408 5400
5531 5520 5535 5527 5514 5509 5516 5510 5508 5510 5507 5521 5527 5525 5520 5524 5530 5521 5511 5503 5498 5491 5486 5481 5476 5471 5466 5463 5458 5454 5450 5446 5444 5441 5438 5436 5432 5427 5423 5417 5409 5403 5397 5390
5525 5516 5516 5513 5507 5511 5512 5505 5490 5506 5515 5507 5518 5524 5522 5526 5529 5521 5510 5501 5494 5487 5483 5478 5473 5469 5466 5462 5458 5453 5450 5444 5440 5438 5436 5432 5428 5423 5415 5407 5400 5392 5385 5376
5525 5515 5513 5517 5512 5509 5505 5505 5503 5491 5491 5517 5526 5527 5527 5523 5520 5512 5507 5499 5492 5488 5484 5478 5474 5469 5464 5461 5457 5453 5448 5443 5438 5437 5433 5429 5423 5415 5408 5400 5391 5386 5376 5366
5518 5510 5500 5511 5506 5495 5492 5496 5508 5515 5516 5522 5517 5516 5522 5521 5517 5509 5503 5496 5493 5489 5483 5478 5474 5469 5463 5459 5455 5450 5444 5440 5438 5433 5429 5425 5418 5411 5402 5396 5389 5379 5367 5356
5511 5504 5499 5499 5499 5497 5491 5499 5503 5508 5507 5519 5509 5507 5509 5512 5513 5506 5499 5494 5493 5491 5486 5479 5474 5467 5463 5458 5453 5448 5443 5440 5435 5431 5427 5421 5415 5407 5400 5395 5386 5374 5362 5348
5500 5502 5503 5508 5504 5504 5500 5496 5495 5503 5508 5511 5514 5512 5508 5512 5510 5505 5500 5496 5495 5492 5485 5479 5472 5466 5462 5456 5453 5447 5444 5442 5433 5428 5425 5421 5415 5405 5400 5395 5384 5372 5358 5352
5496 5496 5504 5517 5509 5504 5515 5488 5490 5496 5495 5502 5502 5495 5507 5512 5511 5507 5503 5498 5496 5492 5484 5478 5471 5467 5461 5458 5452 5448 5445 5439 5433 5429 5427 5423 5416 5406 5401 5394 5382 5369 5359 5354
5484 5487 5487 5508 5515 5517 5497 5485 5491 5497 5493 5496 5503 5503 5504 5505 5508 5508 5504 5502 5499 5491 5485 5478 5473 5469 5464 5460 5454 5449 5446 5443 5438 5434 5430 5425 5415 5408 5402 5393 5383 5368 5362 5356
5461 5471 5476 5490 5510 5501 5493 5482 5486 5490 5501 5496 5500 5505 5507 5511 5518 5514 5504 5501 5497 5491 5483 5478 5475 5470 5467 5461 5457 5453 5450 5446 5443 5437 5430 5423 5414 5411 5404 5395 5382 5369 5364 5360
5450 5458 5470 5472 5494 5501 5474 5473 5483 5495 5510 5500 5500 5502 5502 5508 5529 5519 5505 5499 5495 5489 5485 5483 5478 5475 5472 5467 5463 5460 5454 5449 5444 5434 5426 5421 5418 5415 5407 5396 5384 5372 5367 5363
5426 5438 5448 5463 5480 5475 5465 5477 5492 5509 5495 5496 5501 5502 5503 5503 5512 5514 5508 5503 5497 5493 5490 5487 5482 5480 5475 5472 5468 5466 5459 5452 5445 5437 5432 5426 5421 5418 5412 5401 5389 5378 5372 5369
5400 5418 5433 5450 5467 5472 5473 5481 5489 5477 5486 5497 5501 5504 5506 5513 5517 5515 5512 5509 5503 5499 5495 5492 5488 5485 5481 5477 5472 5470 5466 5452 5451 5445 5441 5433 5425 5422 5418 5409 5398 5388 5380 5376
5407 5410 5423 5436 5454 5466 5466 5468 5475 5485 5491 5497 5501 5508 5511 5517 5523 5519 5518 5512 5506 5502 5500 5495 5491 5490 5487 5482 5477 5474 5468 5461 5457 5456 5450 5442 5431 5426 5423 5416 5408 5399 5388 5384
5418 5419 5431 5443 5458 5463 5470 5483 5484 5487 5493 5501 5507 5511 5516 5520 5526 5526 5521 5516 5511 5507 5505 5500 5498 5495 5492 5486 5483 5477 5472 5469 5464 5462 5458 5450 5441 5431 5429 5423 5415 5406 5399 5391
5421 5429 5438 5452 5464 5468 5485 5487 5489 5494 5500 5508 5513 5516 5520 5524 5531 5530 5526 5521 5516 5511 5508 5504 5502 5499 5496 5492 5488 5483 5478 5475 5472 5468 5465 5459 5451 5438 5434 5430 5422 5416 5406 5402
5429 5437 5445 5455 5460 5461 5475 5488 5492 5496 5507 5514 5518 5524 5526 5527 5534 5532 5531 5525 5521 5516 5511 5509 5506 5504 5500 5497 5493 5489 5485 5480 5477 5476 5471 5465 5461 5451 5440 5437 5436 5428 5420 5417